Other Public Products
Issued by NWS Grand Forks, ND

Home | Current Version | Previous Version | Graphics & Text | Print | Product List | Glossary On
Versions: 1 2 3 4 5 6 7 8 9 10 11 12 13 14 15 16 17 18 19 20 21 22 23 24 25 26 27 28 29 30 31 32 33 34 35 36 37 38 39 40 41 42 43 44 45 46 47 48 49 50
000
FPUS83 KFGF 280410
OPUFGF
PRAIRIE TO PINES WEATHER ROUNDUP
NATIONAL WEATHER SERVICE EASTERN NORTH DAKOTA/GRAND FORKS ND
1100 PM CDT MON JUL 27 2015

 **SATELLITE DATA USED TO AUGMENT SKY COVER AT AUTOMATED STATIONS**
 *****  WEATHER ACROSS EASTERN NORTH DAKOTA  *****

CITY           SKY/WX    TMP DP  RH WIND       PRES   REMARKS
GRAND FORKS    MOCLDY    77  71  82 SE10      29.74S
GRAND FORKS AF MOCLDY    77  72  86 S10       29.75S
GRAND CITY NWS   N/A     77 N/A N/A SE12        N/A
BUXTON         NOT AVBL
DEVILS LAKE    PTCLDY    79  68  69 SE13      29.71R
FARGO          CLEAR     79  71  76 SE14G23   29.77R
WAHPETON ARPT  CLEAR     75  70  83 SE10G16   29.79F
$$

 *****  WEATHER ACROSS CENTRAL AND WESTERN NORTH DAKOTA  *****

CITY           SKY/WX    TMP DP  RH WIND       PRES   REMARKS
JAMESTOWN      CLOUDY    78  74  87 SE16      29.71F
BISMARCK       LGT RAIN  77  62  59 SW24G51   29.69S
MINOT          CLOUDY    82  69  64 SE17G24   29.59S
MINOT AFB      CLOUDY    80  74  81 SE16G24   29.57S
GARRISON         N/A     80  66  62 S25G53    29.59F
WILLISTON      LGT RAIN  68  64  87 S9        29.61R
DICKINSON      CLOUDY    74  56  53 SW30G54   29.73R
HETTINGER      CLOUDY    69  57  65 E14       29.69S
$$

 *****  OTHER OBSERVATIONS NORTHEAST NORTH DAKOTA  *****

CITY           SKY/WX    TMP DP  RH WIND       PRES   REMARKS
WALHALLA       FAIR      75  75 100 MISG      29.74S
LANGDON        FAIR      75  72  88 SE14      29.76S
CAVALIER       FAIR      75  72  88 SE7       29.74S
GRAFTON        FAIR      75  73  94 E10       29.75F
CANDO          NOT AVBL
FORT TOTTEN      N/A     78  72  81 SE9       29.95S
ROLLA          CLOUDY    73  73 100 SE13      29.73R
RUGBY          NOT AVBL
 ***** THE ABOVE OBSERVATIONS ARE NON NWS ARE NOT QUALITY
        CONTROLLED AND MAY MIS-REPORT RAIN FOR SNOW...
$$

 *****  OTHER OBSERVATIONS SOUTHEAST NORTH DAKOTA *****

CITY           SKY/WX    TMP DP  RH WIND       PRES   REMARKS
COOPERSTOWN    NOT AVBL
VALLEY CITY    FAIR      77  77 100 S13G20    29.75S
OAKES            N/A     75  72  88 SE9       29.74F
GWINNER          N/A     79  77  94 SE13      29.76F
SHEYENNE NWR     N/A     77  73  87 SE9       29.95S
BUFFALO        NOT AVBL
WYNDMERE         N/A     77  73  88 SE10        N/A
 ***** THE ABOVE OBSERVATIONS ARE NON NWS ARE NOT QUALITY
       CONTROLLED AND MAY MIS-REPORT RAIN FOR SNOW...
$$

  *****  WEATHER ACROSS NORTHERN MINNESOTA  *****

CITY           SKY/WX    TMP DP  RH WIND       PRES   REMARKS
FLAG ISLAND    CLEAR     81  72  74 S10       29.83S
WARROAD        CLEAR     77  72  83 SE7       29.84F
ROSEAU         CLEAR     75  70  83 E6        29.83S
HALLOCK        PTCLDY    77  72  83 E10       29.76F
THF RVR FALLS  PTCLDY    75  70  83 SE9       29.81S
HALSTAD        NOT AVBL
FOSSTON        CLEAR     73  68  83 SE8       29.83F
BAUDETTE       CLEAR     74  66  76 SE7       29.86S
WASKISH        CLEAR     72  68  88 E5        29.87S
CROOKSTON      PTCLDY    75  72  88 SE8       29.78S
$$
  *****  WEATHER ACROSS CENTRAL AND WEST MINNESOTA  *****

CITY           SKY/WX    TMP DP  RH WIND       PRES   REMARKS
BEMIDJI        PTCLDY    76  70  82 SE14G20   29.87S
PARK RAPIDS    CLEAR     77  70  79 SE10      29.88R
WADENA         CLEAR     75  70  83 SE10      29.87S
DETROIT LAKES  CLEAR     77  70  78 SE10G20   29.85S
MOORHEAD       CLEAR     77  72  83 SE10      29.79R
FERGUS FALLS   CLEAR     79  72  78 SE12      29.81S
ELBOW LAKE     FAIR      76  72  88 SE14      29.83S
MORRIS MN      CLEAR     75  73  94 SE10      29.82F
STAPLES        CLEAR     75  70  83 SE5       29.89R
WHEATON        CLEAR     73  70  88 SE12      29.80F
$$
  *****  WEATHER ELSEWHERE ACROSS MINNESOTA  *****

CITY           SKY/WX    TMP DP  RH WIND       PRES   REMARKS
DULUTH         PTCLDY    70  63  78 SE5       29.96S
INTRNTL FALLS  CLEAR     75  66  73 S6        29.90R
ELY            CLEAR     72  59  64 SE7       29.96S
CLOQUET        CLEAR     72  64  78 CALM      29.95S
BRAINERD       CLEAR     75  70  84 SE8       29.91R
HIBBING        CLEAR     70  64  81 SE5       29.94S
ALEXANDRIA     CLEAR     75  72  90 SE12      29.88R
SAINT CLOUD    CLEAR     75  72  90 SE5       29.90R
MINNEAPOLIS    PTCLDY    78  71  79 SE8       29.91S
$$

  *****  WEATHER ACROSS SOUTH DAKOTA  *****

CITY           SKY/WX    TMP DP  RH WIND       PRES   REMARKS
SIOUX FALLS    MOCLDY    77  71  82 S12       29.82R
BROOKINGS      PTCLDY    75  72  88 SE14      29.84F
WATERTOWN      CLOUDY    77  71  82 SE10      29.80F
HURON          PTCLDY    79  74  84 SE15      29.71F
SISSETON         N/A     76  72  87 S14G21    29.76F
ABERDEEN       MOCLDY    78  70  76 SE10      29.71F
MITCHELL       PTCLDY    81  73  76 SE18G24   29.74F
PIERRE         TSTM      69  64  84 NW39G45   29.72R
MOBRIDGE       TSTM      71  66  84 W13G33    29.77R
RAPID CITY     MOCLDY    65  62  90 W3        29.71R
$$

  *****  SOME WEATHER IN NEARBY STATES *****

CITY           SKY/WX    TMP DP  RH WIND       PRES   REMARKS
GLASGOW MT     RAIN      58  54  86 W20       29.73R
GREAT FALLS MT LGT RAIN  51  49  92 SW13      29.99R
CHEYENNE WY    CLEAR     71  38  29 NW20G32   29.99R
SCOTTSBLUFF NE PTCLDY    70  61  73 CALM      29.78R
OMAHA NE       PTCLDY    78  71  79 SE18      29.85S
DES MOINES IA  PTCLDY    74  69  85 SE8       29.91S
DAVENPORT IA   MOCLDY    75  72  90 E8        29.95F
CHICAGO IL     MOCLDY    74  65  73 E6        30.02R
EAU CLAIRE WI  CLEAR     77  68  73 SE7       29.95S
LA CROSSE WI   CLEAR     76  70  82 E7        29.95S
$$

  *****  SOME NATIONAL WEATHER *****

CITY           SKY/WX    TMP DP  RH WIND       PRES   REMARKS
LA GUARDIA NY  MOCLDY    78  67  68 SW6       30.01S
RALEIGH NC     PTCLDY    79  70  74 S5        30.02S
ATLANTA GA     MOCLDY    84  70  62 NE6       30.00R
NEW ORLEANS LA PTCLDY    83  73  72 SW7       29.96R
OKLAHOMA CITY  CLEAR     80  72  76 S7        29.92R
ALBUQUERQUE NM CLOUDY    82  52  35 SE8       30.07R
SALT LAKE CITY CLEAR     70  43  37 N9        30.10R
LOS ANGELES CA MOCLDY    68  64  87 W10       29.89S
BOISE ID       CLEAR     67  32  27 N9        30.12R
SEATTLE WA     MOCLDY    69  48  47 N6        30.22S
$$

*** WEATHER ACROSS MANITOBA...SASKATCHEWAN AND ONTARIO ***
                ***ONTARIO***

CITY           SKY/WX    TMP DP  RH WIND       PRES   REMARKS
GERALDTON      PTCLDY    72  64  78 SW8       29.95S
THUNDER BAY    CLEAR     66  63  88 NE5       29.96S
SIOUX LOOKOUT  CLEAR     64  64 100 CALM      29.90F
TORONTO        CLEAR     77  61  57 N7        30.03R
BIG TROUT LK   CLEAR     66  57  72 NW5       29.86S
PICKLE LAKE    NOT AVBL
DRYDEN         CLEAR     75  64  69 E2        29.90F
KENORA         PTCLDY    77  64  65 SE5       29.88S
$$
                *** MANITOBA***

CITY           SKY/WX    TMP DP  RH WIND       PRES   REMARKS
BRANDON        TSTM      75  72  88 E14       29.69F
DAUPHIN        CLOUDY    70  57  64 SE10      29.75S THUNDER
ISLAND LAKE    CLOUDY    70  63  78 CALM      29.87S
PILOT MOUND      N/A     73  70  88 E9          N/A
THE PAS        PTCLDY    61  54  77 SE2       29.83F
THOMPSON       PTCLDY    59  55  88 CALM      29.84F
WINNIPEG       PTCLDY    77  70  78 SE9       29.77F
LYNN LAKE      MOCLDY    64  52  63 SW6       29.82S
CHURCHILL      PTCLDY    61  59  94 NE6       29.75R
GILLAM         MOCLDY    70  57  64 W5        29.82S
$$
                ***SASKATCHEWAN***

CITY           SKY/WX    TMP DP  RH WIND       PRES   REMARKS
ESTEVAN        CLOUDY    72  68  88 E17       29.52F
KINDERSLEY     LGT RAIN  57  55  94 N12G18    29.85S
LLOYDMINSTER   MOCLDY    61  55  82 CALM      29.89F
PRINCE ALBERT  MOCLDY    61  59  94 CALM      29.84R
REGINA         TSTM      63  57  82 NE17G26   29.60R



USA.gov is the U.S. government's official web portal to all federal, state and local government web resources and services.